Three Rivers, MI

1:49 AM EST on December 12, 2017 (GMT -0500)
Three Rivers Municipal-Haines

Weather History for KHAI - September, 2013

Change the Weather History Date:

Monday, September 30, 2013

  Actual Average Record
Temperature  
Mean Temperature 58 °F -  
Max Temperature 72 °F 68 °F 91 °F (1953)
Min Temperature 45 °F 44 °F 30 °F (1963)
Degree Days  
Heating Degree Days 6    
Growing Degree Days 8 (Base 50)    
Moisture  
Dew Point 50 °F    
Average Humidity 80    
Maximum Humidity 99    
Minimum Humidity 44    
Precipitation  
Precipitation 0.00 in - - ()
Sea Level Pressure  
Sea Level Pressure 29.98 in    
Wind  
Wind Speed 1 mph (SSW)    
Max Wind Speed 12 mph    
Max Gust Speed 16 mph    
Visibility 5 miles    
Events Fog    
Averages and records for this station are not official NWS values.
T = Trace of Precipitation, MM = Missing Value Source: NWS Daily Summary

Daily Weather History Graph

Daily Weather History Graph

Search for Another Location

Airport or City:

Trip Planner

Search our weather history database for the weather conditions in past years. The results will help you decide how hot, cold, wet, or windy it might be!

Date:

Astronomy

Sep. 30, 2013 Rise Set
Actual Time 7:38 AM EDT 7:25 PM EDT
Civil Twilight 7:10 AM EDT 7:53 PM EDT
Nautical Twilight 6:38 AM EDT 8:25 PM EDT
Astronomical Twilight 6:05 AM EDT 8:58 PM EDT
Moon 3:11 AM EDT (9/30) 4:58 PM EDT (9/30)
Length of Visible Light 12h 42m
Length of Day
11h 46m
Waning Crescent, 19% of the Moon is Illuminated
Sep 30
Waning Crescent
Oct 4
New
Oct 11
First Quarter
Oct 18
Full
Oct 26
Last Quarter

Hourly Weather History & Observations

Time (EDT) Temp. Dew Point Humidity Pressure Visibility Wind Dir Wind Speed Gust Speed Precip Events Conditions
12:15 AM 51.4 °F 49.6 °F 94% 30.01 in 5.0 mi Calm Calm - N/A   Clear
12:35 AM 51.1 °F 49.5 °F 94% 30.01 in 7.0 mi Calm Calm - N/A   Clear
12:54 AM 50.0 °F 48.2 °F 94% 30.01 in 10.0 mi Calm Calm - N/A   Clear
1:15 AM 49.3 °F 47.8 °F 95% 30.01 in 2.5 mi Calm Calm - N/A   Clear
1:35 AM 48.6 °F 46.9 °F 94% 30.01 in 0.8 mi Calm Calm - N/A   Mist
1:54 AM 48.4 °F 47.1 °F 95% 30.01 in 2.0 mi Calm Calm - N/A   Clear
2:15 AM 48.9 °F 47.8 °F 96% 30.01 in 2.5 mi Calm Calm - N/A   Clear
2:35 AM 48.9 °F 47.7 °F 95% 30.01 in 5.0 mi Calm Calm - N/A   Clear
2:54 AM 49.1 °F 47.5 °F 94% 30.01 in 2.5 mi Calm Calm - N/A   Clear
3:15 AM 48.2 °F 46.6 °F 94% 30.00 in 0.2 mi Calm Calm - N/A Fog Fog
3:34 AM 48.2 °F 46.8 °F 95% 30.00 in 1.8 mi Calm Calm - N/A   Mist
3:55 AM 48.4 °F 47.1 °F 95% 30.00 in 0.8 mi Calm Calm - N/A   Mist
4:15 AM 49.1 °F 47.8 °F 95% 30.00 in 0.2 mi Calm Calm - N/A Fog Fog
4:34 AM 47.5 °F 45.9 °F 94% 30.00 in 0.2 mi Calm Calm - N/A Fog Fog
4:55 AM 46.6 °F 45.1 °F 95% 30.00 in 0.5 mi Calm Calm - N/A Fog Fog
5:15 AM 46.6 °F 45.1 °F 95% 30.00 in 0.2 mi Calm Calm - N/A Fog Fog
5:35 AM 45.7 °F 44.4 °F 95% 30.00 in 0.2 mi Calm Calm - N/A Fog Fog
5:55 AM 45.9 °F 44.8 °F 96% 30.00 in 0.5 mi Calm Calm - N/A Fog Fog
6:14 AM 45.5 °F 44.4 °F 96% 30.00 in 0.5 mi Calm Calm - N/A Fog Fog
6:35 AM 47.3 °F 46.4 °F 97% 30.01 in 1.5 mi Calm Calm - N/A   Overcast
6:55 AM 48.2 °F 47.1 °F 96% 30.02 in 0.2 mi Calm Calm - N/A Fog Fog
7:14 AM 48.2 °F 47.3 °F 97% 30.02 in 0.5 mi Calm Calm - N/A Fog Fog
7:35 AM 47.7 °F 46.6 °F 96% 30.02 in 0.2 mi Calm Calm - N/A Fog Fog
7:55 AM 49.1 °F 48.2 °F 97% 30.03 in 0.2 mi Calm Calm - N/A Fog Fog
8:14 AM 50.0 °F 49.1 °F 97% 30.03 in 0.2 mi South 3.5 mph - N/A Fog Fog
8:35 AM 50.0 °F 49.1 °F 97% 30.02 in 0.2 mi SSW 3.5 mph - N/A Fog Fog
8:55 AM 50.2 °F 49.5 °F 97% 30.03 in 0.2 mi Calm Calm - N/A Fog Fog
9:14 AM 50.9 °F 50.2 °F 97% 30.03 in 0.2 mi South 4.6 mph - N/A Fog Fog
9:35 AM 51.6 °F 51.1 °F 98% 30.02 in 0.2 mi South 3.5 mph - N/A Fog Fog
9:55 AM 52.3 °F 51.8 °F 98% 30.02 in 0.2 mi Calm Calm - N/A Fog Fog
10:15 AM 52.9 °F 52.5 °F 99% 30.02 in 0.2 mi SSE 3.5 mph - N/A Fog Fog
10:35 AM 53.8 °F 53.2 °F 98% 30.02 in 0.2 mi South 3.5 mph - N/A Fog Fog
10:54 AM 54.0 °F 53.6 °F 99% 30.01 in 0.2 mi SE 3.5 mph - N/A Fog Fog
11:15 AM 54.7 °F 54.3 °F 99% 30.01 in 0.2 mi Calm Calm - N/A Fog Fog
11:35 AM 55.9 °F 55.6 °F 99% 30.02 in 0.5 mi Calm Calm - N/A Fog Fog
11:54 AM 56.7 °F 56.3 °F 99% 30.02 in 3.0 mi Calm Calm - N/A   Overcast
12:15 PM 59.4 °F 58.6 °F 97% 30.01 in 10.0 mi Calm Calm - N/A   Scattered Clouds
12:35 PM 61.2 °F 59.0 °F 93% 30.00 in 10.0 mi South 3.5 mph - N/A   Clear
12:54 PM 62.8 °F 57.6 °F 83% 30.01 in 10.0 mi Calm Calm - N/A   Clear
1:15 PM 66.2 °F 52.9 °F 62% 30.00 in 10.0 mi South 6.9 mph - N/A   Clear
1:35 PM 68.0 °F 47.7 °F 48% 29.98 in 10.0 mi SW 8.1 mph 16.1 mph N/A   Clear
1:54 PM 68.9 °F 50.0 °F 51% 29.98 in 10.0 mi SSW 9.2 mph - N/A   Clear
2:15 PM 69.3 °F 50.0 °F 50% 29.97 in 10.0 mi WSW 8.1 mph - N/A   Clear
2:35 PM 70.5 °F 50.7 °F 49% 29.96 in 10.0 mi SW 8.1 mph - N/A   Clear
2:54 PM 70.7 °F 49.8 °F 48% 29.95 in 10.0 mi SSW 9.2 mph - N/A   Clear
3:15 PM 70.5 °F 50.5 °F 49% 29.95 in 10.0 mi SSW 11.5 mph - N/A   Clear
3:34 PM 71.8 °F 51.3 °F 48% 29.95 in 10.0 mi SW 6.9 mph - N/A   Clear
3:55 PM 71.4 °F 51.1 °F 49% 29.94 in 10.0 mi SSW 6.9 mph - N/A   Clear
4:15 PM 72.3 °F 51.3 °F 47% 29.94 in 10.0 mi SW 8.1 mph - N/A   Clear
4:34 PM 71.8 °F 50.4 °F 47% 29.94 in 10.0 mi SW 3.5 mph - N/A   Clear
4:55 PM 72.5 °F 50.7 °F 46% 29.93 in 10.0 mi West 8.1 mph - N/A   Clear
5:15 PM 72.5 °F 49.3 °F 44% 29.93 in 10.0 mi Calm Calm - N/A   Clear
5:35 PM 72.1 °F 49.5 °F 45% 29.93 in 10.0 mi SW 6.9 mph - N/A   Clear
5:55 PM 72.3 °F 50.4 °F 46% 29.93 in 10.0 mi Calm Calm - N/A   Clear
6:14 PM 71.6 °F 48.7 °F 44% 29.93 in 10.0 mi SW 4.6 mph - N/A   Clear
6:35 PM 70.5 °F 50.4 °F 49% 29.94 in 10.0 mi WSW 3.5 mph - N/A   Clear
6:55 PM 69.1 °F 49.5 °F 50% 29.94 in 10.0 mi SSW 3.5 mph - N/A   Clear
7:14 PM 66.4 °F 50.4 °F 56% 29.94 in 7.0 mi Calm Calm - N/A   Clear
7:35 PM 65.5 °F 50.7 °F 59% 29.93 in 7.0 mi Calm Calm - N/A   Clear
7:55 PM 61.3 °F 50.5 °F 68% 29.94 in 10.0 mi Calm Calm - N/A   Clear
8:14 PM 61.3 °F 51.8 °F 71% 29.94 in 10.0 mi Calm Calm - N/A   Clear
8:35 PM 60.6 °F 52.3 °F 74% 29.94 in 10.0 mi South 3.5 mph - N/A   Clear
8:55 PM 59.9 °F 53.1 °F 78% 29.95 in 10.0 mi Calm Calm - N/A   Clear
9:14 PM 59.4 °F 53.4 °F 81% 29.95 in 10.0 mi Calm Calm - N/A   Clear
9:35 PM 58.3 °F 53.1 °F 83% 29.96 in 10.0 mi Calm Calm - N/A   Clear
9:55 PM 56.5 °F 52.0 °F 85% 29.96 in 10.0 mi South 4.6 mph - N/A   Clear
10:15 PM 57.2 °F 52.7 °F 85% 29.96 in 10.0 mi Calm Calm - N/A   Clear
10:35 PM 57.4 °F 53.2 °F 86% 29.95 in 10.0 mi Calm Calm - N/A   Clear
10:54 PM 57.0 °F 53.4 °F 88% 29.96 in 7.0 mi Calm Calm - N/A   Clear
11:15 PM 55.0 °F 51.3 °F 87% 29.96 in 7.0 mi Calm Calm - N/A   Clear
11:35 PM 55.0 °F 52.0 °F 89% 29.96 in 5.0 mi Calm Calm - N/A   Clear
11:54 PM 53.6 °F 51.3 °F 92% 29.95 in 5.0 mi Calm Calm - N/A   Clear